This is the latest recevied weather packets stored in our database for station/object Ad4UU. If no packets are shown the sender has not sent any weather packets the latest 10 day(s).
| Time | Temp. | Humidity | Pressure | Rain* | Wind** | Luminosity | Snow |
|---|---|---|---|---|---|---|---|
| 1777803342 | 13.89° C | 97% | 1017.9 hPa | 0 mm | - | - | - |
| 1777798849 | 13.33° C | 96% | 1017.5 hPa | 0 mm | - | - | - |
| 1777797945 | 13.33° C | 96% | 1017.3 hPa | 0 mm | - | - | - |
| 1777797629 | 13.33° C | 96% | 1017.4 hPa | 0 mm | - | - | - |
| 1777796729 | 13.89° C | 96% | 1017.3 hPa | 0 mm | - | - | - |
| 1777796431 | 13.89° C | 96% | 1017.1 hPa | 0 mm | - | - | - |
| 1777794352 | 13.89° C | 96% | 1017.2 hPa | 0 mm | - | - | - |
| 1777793730 | 13.89° C | 95% | 1017.2 hPa | 0 mm | - | - | - |
| 1777793447 | 13.89° C | 95% | 1017.3 hPa | 0 mm | - | - | - |
| 1777792229 | 14.44° C | 95% | 1017.4 hPa | 0 mm | - | - | - |
| 1777791644 | 14.44° C | 95% | 1017.5 hPa | 0 mm | - | - | - |
| 1777789230 | 15° C | 94% | 1017.3 hPa | 0 mm | - | - | - |
| 1777788948 | 15° C | 94% | 1017.3 hPa | 0 mm | - | - | - |
| 1777788331 | 15° C | 94% | 1017.4 hPa | 0 mm | - | - | - |
| 1777787730 | 15° C | 93% | 1017.3 hPa | 0 mm | - | - | - |
| 1777787431 | 15° C | 93% | 1017.1 hPa | 0 mm | - | - | - |
| 1777785629 | 15° C | 93% | 1017.5 hPa | 0 mm | - | - | - |
| 1777783831 | 15.56° C | 92% | 1017 hPa | 0 mm | - | - | - |
| 1777783231 | 15.56° C | 91% | 1016.8 hPa | 0 mm | - | - | - |
| 1777782330 | 16.11° C | 91% | 1016.6 hPa | 0 mm | - | - | - |
| 1777780230 | 16.67° C | 89% | 1016.2 hPa | 0 mm | - | - | - |
| 1777778730 | 17.22° C | 89% | 1015.7 hPa | 0 mm | - | - | - |
| 1777774542 | 17.78° C | 89% | 1015.2 hPa | 0 mm | - | - | - |
| 1777774230 | 17.78° C | 89% | 1015.1 hPa | 0 mm | - | - | - |
| 1777773648 | 17.78° C | 90% | 1014.7 hPa | 0 mm | - | - | - |
* Rain latest hour (hover to see other rain measurements)
** Current wind speed in m/s (hover to see current wind gust speed)